sat.trackr.live / text

‹ back to catalog

STARLINK-32138

NORAD 60255 · 2024-131A

PAYLOAD ACTIVE UNKNOWN

§ Identity

Operator
Country
US
Launch date
2024-07-27
Launch site
AFETR
Launch vehicle
Mass (kg)
RCS (m²)

Purposes: comms

External: N2YO · Heavens-Above · Gunter

§ Orbital elements

Epoch: 2026-09-21T14:27:35.376192Z

Period
94.01 min
Inclination
53.1567°
Eccentricity
0.0001612
Mean motion
15.31695380 rev/d
Perigee alt
469.6 km
Apogee alt
471.9 km
Semi-major
6,848.9 km
B*
-1.2974e-5
RAAN
221.0274°
Arg perigee
93.8820°
Mean anomaly
266.2366°
Rev number
12,203

§ Raw data

STARLINK-321381 60255U 24131A   26264.60249278 -.00000768  00000+0 -12974-4 0  99962 60255  53.1567 221.0274 0001612  93.8820 266.2366 15.31695380122035

JSON: /api/v1/satellites/60255 · /tle

For live sub-satellite position, see the globe view (requires WebGL).

§ Visibility from observer

Set your observer location to see the next 7 days of passes ≥ 10°. The values pass through the URL so the page stays shareable.

No JS? Fill the form by hand. The geolocation button needs JavaScript.